User: anonymous   Login
Location: Caltech
(34.1382°N, 118.1253°W)
Time: 12:25:41
(UTC-07:00)
Language:

Saudisat 1A - Orbit

View from above orbital plane
View from above orbital plane
View from above satellite
View from above satellite

Ground track
Ground track

The orbit data is extracted from the following two-line orbital elements,

1 26546U 00057B   15116.15403606  .00002480  00000-0  27476-3 0  9997
2 26546 064.5561 264.5798 0026151 319.1595 040.7554 14.89391056789983
Epoch (UTC): 26 April 2015 03:41:48
Eccentricity: 0.0026151
inclination: 64.5561°
perigee height: 581 km
apogee height: 618 km
right ascension of ascending node: 264.5798°
argument of perigee: 319.1595°
revolutions per day: 14.89391056
mean anomaly at epoch: 40.7554°
orbit number at epoch: 78998

The dashed part of the orbit path shows where the satellite is in the earth's shadow,  

DLR